This is the latest recevied weather packets stored in our database for station/object KJ5HMU-13. If no packets are shown the sender has not sent any weather packets the latest 1 day(s).
| Time | Temp. | Humidity | Pressure | Rain* | Wind** | Luminosity | Snow |
|---|---|---|---|---|---|---|---|
| 1778103947 | 1.11° C | 73% | 1025 hPa | 0 mm | - | 141 W/m² | - |
| 1778102431 | 0° C | 78% | 1025.1 hPa | 0 mm | - | 86 W/m² | - |
| 1778099399 | 0.56° C | 79% | 1024.9 hPa | 0 mm | - | 891 W/m² | - |
| 1778096973 | 0.56° C | 69% | 1024.6 hPa | 0 mm | - | 102 W/m² | - |
| 1778091517 | 1.11° C | 72% | 1024.3 hPa | 0 mm | - | 195 W/m² | - |
| 1778091215 | 0.56° C | 74% | 1024.5 hPa | 0 mm | - | 783 W/m² | - |
| 1778090304 | 1.11° C | 74% | 1024.5 hPa | 0 mm | - | 327 W/m² | - |
| 1778090001 | 0.56° C | 69% | 1024.6 hPa | 0 mm | - | 285 W/m² | - |
| 1778086670 | -1.11° C | 77% | 1023.7 hPa | 0 mm | - | 88 W/m² | - |
| 1778086367 | -1.11° C | 77% | 1023.6 hPa | 0 mm | - | 86 W/m² | - |
| 1778086064 | -1.11° C | 78% | 1023.4 hPa | 0 mm | - | 90 W/m² | - |
| 1778083941 | -2.22° C | 80% | 1023 hPa | 0 mm | - | 78 W/m² | - |
| 1778082730 | -3.33° C | 84% | 1022.8 hPa | 0 mm | - | 44 W/m² | - |
| 1778080986 | -3.33° C | 86% | 1022.3 hPa | 0 mm | - | 36 W/m² | - |
| 1778080685 | -3.33° C | 87% | 1022.4 hPa | 0 mm | - | 29 W/m² | - |
| 1778079775 | -3.89° C | 85% | 1022.5 hPa | 0 mm | - | 32 W/m² | - |
| 1778077656 | -4.44° C | 91% | 1021.9 hPa | 0 mm | - | 24 W/m² | - |
| 1778075234 | -3.89° C | 93% | 1021.6 hPa | 0 mm | - | 14 W/m² | - |
| 1778074021 | -3.89° C | 93% | 1021.6 hPa | 0 mm | - | 7 W/m² | - |
| 1778073111 | -3.33° C | 94% | 1021.3 hPa | 0 mm | - | 7 W/m² | - |
| 1778072808 | -3.33° C | 93% | 1021.1 hPa | 0 mm | - | 5 W/m² | - |
| 1778071599 | -3.33° C | 94% | 1020.3 hPa | 0 mm | - | 4 W/m² | - |
| 1778068574 | -3.33° C | 94% | 1019.6 hPa | 0 mm | - | 0 W/m² | - |
| 1778065548 | -3.33° C | 91% | 1019.8 hPa | 0 mm | - | 0 W/m² | - |
| 1778065245 | -3.33° C | 90% | 1019.4 hPa | 0 mm | - | 0 W/m² | - |
* Rain latest hour (hover to see other rain measurements)
** Current wind speed in m/s (hover to see current wind gust speed)